Location: The Saddle
(36.8333°N, 80.3417°W)
Time: 15:41:19
(UTC-05:00)

Vanguard 1 Rocket - All Passes

Search period start: 25 January 2022 00:00
Search period end: 04 February 2022 00:00
Orbit: 651 x 4224 km, 34.3° (Epoch: 24 January)

Date Brightness Start Highest point End Pass type
(mag) Time Alt. Az. Time Alt. Az. Time Alt. Az.
25 Jan - 07:39:59 10° SE 07:45:47 11° SE 07:51:34 10° ESE daylight
25 Jan - 09:52:54 10° SSW 10:15:25 39° SE 10:33:50 10° E daylight
25 Jan - 12:21:06 10° WSW 12:46:31 68° SSE 13:02:04 10° E daylight
25 Jan - 14:55:11 10° W 15:16:47 81° S 15:27:38 10° E daylight
25 Jan - 17:29:48 10° W 17:44:07 56° SSW 17:51:28 10° SE daylight
25 Jan - 20:04:39 10° WSW 20:07:45 12° SW 20:10:21 10° SSW visible
26 Jan - 08:42:12 10° S 09:01:15 28° SE 09:18:57 10° E daylight
26 Jan - 11:06:40 10° SW 11:31:56 58° SSE 11:49:54 10° E daylight
26 Jan - 13:38:45 10° WSW 14:03:10 80° S 14:16:28 10° E daylight
26 Jan - 16:13:53 10° W 16:32:11 72° SSW 16:41:12 10° ESE daylight
26 Jan - 18:47:54 10° W 18:57:23 28° SW 19:03:14 10° SSE visible
27 Jan - 07:34:43 10° SSE 07:47:33 17° SE 08:00:31 10° E daylight
27 Jan - 09:53:40 10° SSW 10:17:17 46° SE 10:36:53 10° E daylight
27 Jan - 12:22:55 10° WSW 12:48:50 74° SSE 13:04:51 10° E daylight
27 Jan - 14:57:26 10° W 15:19:22 80° S 15:30:28 10° ESE daylight
27 Jan - 17:32:12 10° W 17:46:28 48° SSW 17:53:59 10° SE daylight
28 Jan - 08:42:17 10° SSW 09:02:55 34° SE 09:22:32 10° E daylight
28 Jan - 11:08:11 10° SW 11:34:02 65° SSE 11:52:40 10° E daylight
28 Jan - 13:40:54 10° W 14:05:41 82° S 14:19:17 10° E daylight
28 Jan - 16:16:09 10° W 16:34:41 66° SSW 16:43:55 10° ESE daylight
28 Jan - 18:50:56 10° W 18:59:26 22° SW 19:05:02 10° S visible
29 Jan - 07:33:08 10° S 07:49:09 22° SE 08:05:49 10° E daylight
29 Jan - 09:54:49 10° SW 10:19:07 54° SSE 10:39:44 10° E daylight
29 Jan - 12:24:55 10° WSW 12:51:11 78° SSE 13:07:37 10° E daylight
29 Jan - 14:59:41 10° W 15:21:55 78° SSW 15:33:16 10° ESE daylight
29 Jan - 17:34:40 10° W 17:48:40 40° SW 17:56:20 10° SSE daylight
30 Jan - 06:30:24 10° SE 06:35:59 11° SE 06:41:49 10° ESE visible
30 Jan - 08:42:57 10° SSW 09:04:33 41° SE 09:25:41 10° E daylight
30 Jan - 11:09:58 10° WSW 11:36:10 71° SSE 11:55:23 10° E daylight
30 Jan - 13:43:08 10° W 14:08:10 83° S 14:22:06 10° E daylight
30 Jan - 16:18:26 10° W 16:37:02 59° SSW 16:46:31 10° SE daylight
30 Jan - 18:54:27 10° W 19:01:20 17° SW 19:06:19 10° SSW visible
31 Jan - 07:32:51 10° S 07:50:38 29° SE 08:09:52 10° E daylight
31 Jan - 09:56:18 10° SW 10:20:59 60° SSE 10:42:27 10° ENE daylight
31 Jan - 12:27:04 10° WSW 12:53:33 82° S 13:10:22 10° E daylight
31 Jan - 15:01:56 10° W 15:24:23 74° SSW 15:36:00 10° ESE daylight
31 Jan - 17:37:15 10° W 17:50:41 33° SW 17:58:26 10° SSE daylight
01 Feb - 06:25:52 10° SSE 06:37:29 16° SE 06:50:22 10° E visible
01 Feb - 08:44:03 10° SSW 09:06:09 48° SE 09:28:34 10° ENE daylight
01 Feb - 11:11:56 10° WSW 11:38:19 76° SSE 11:58:05 10° E daylight
01 Feb - 13:45:24 10° W 14:10:39 81° S 14:24:51 10° ESE daylight
01 Feb - 16:20:43 10° WNW 16:39:14 52° SW 16:48:58 10° SE daylight
01 Feb - 18:59:11 10° WSW 19:03:06 12° WSW 19:06:23 10° SW visible
02 Feb - 07:33:20 10° SSW 07:52:04 35° SE 08:13:15 10° E daylight
02 Feb - 09:58:03 10° SW 10:22:53 67° SSE 10:45:06 10° E daylight
02 Feb - 12:29:18 10° W 12:55:57 83° S 13:13:07 10° E daylight
02 Feb - 15:04:10 10° W 15:26:42 68° SSW 15:38:38 10° ESE daylight
02 Feb - 17:40:04 10° W 17:52:32 27° SW 18:00:15 10° S daylight
03 Feb - 06:24:45 10° S 06:38:51 22° SE 06:55:28 10° E visible
03 Feb - 08:45:30 10° SW 09:07:49 55° SE 09:31:15 10° ENE daylight
03 Feb - 11:14:06 10° WSW 11:40:32 80° SSE 12:00:45 10° E daylight
03 Feb - 13:47:41 10° W 14:13:03 79° SSW 14:27:35 10° ESE daylight
03 Feb - 16:23:04 10° WNW 16:41:15 44° SW 16:51:14 10° SSE daylight
